| time (UTC) | temp F | wind direction | speed knots | gust knots | rain 1hr in | rain 24hr in | rain mn in | humidity % | barometer mb |
| 20260503231820 | 62 | 0 | 1.7 | 0.0 | 0.00 | 0.00 | 0.00 | 72 | |
| 20260503230820 | 63 | 0 | 2.6 | 0.0 | 0.00 | 0.00 | 0.00 | 71 | |
| 20260503225750 | 63 | 0 | 0.9 | 0.0 | 0.00 | 0.00 | 0.00 | 70 | |
| 20260503224720 | 63 | 0 | 0.9 | 0.0 | 0.00 | 0.00 | 0.00 | 72 | |
| 20260503223650 | 62 | 0 | 0.0 | 0.0 | 0.00 | 0.00 | 0.00 | 72 | |
| 20260503222620 | 62 | 0 | 2.6 | 0.0 | 0.00 | 0.00 | 0.00 | 73 | |
| 20260503221620 | 61 | 0 | 2.6 | 0.0 | 0.00 | 0.00 | 0.00 | 73 | |
| 20260503220550 | 61 | 0 | 1.7 | 0.0 | 0.00 | 0.00 | 0.00 | 73 | |
| 20260503215520 | 60 | 0 | 1.7 | 0.0 | 0.00 | 0.00 | 0.00 | 74 | |
| 20260503214450 | 60 | 0 | 1.7 | 0.0 | 0.00 | 0.00 | 0.00 | 75 | |
| 20260503213420 | 60 | 0 | 5.2 | 0.0 | 0.00 | 0.00 | 0.00 | 75 | |
| 20260503212420 | 60 | 0 | 5.2 | 0.0 | 0.00 | 0.00 | 0.00 | 75 | |
| 20260503211350 | 61 | 0 | 1.7 | 0.0 | 0.00 | 0.00 | 0.00 | 74 | |
| 20260503210350 | 60 | 0 | 2.6 | 0.0 | 0.00 | 0.00 | 0.00 | 74 | |
| 20260503205350 | 61 | 0 | 0.9 | 0.0 | 0.00 | 0.00 | 0.00 | 74 | |
| 20260503204350 | 62 | 0 | 1.7 | 0.0 | 0.00 | 0.00 | 0.00 | 73 | |
| 20260503203320 | 63 | 0 | 1.7 | 0.0 | 0.00 | 0.00 | 0.00 | 72 | |
| 20260503202250 | 63 | 0 | 5.2 | 0.0 | 0.00 | 0.00 | 0.00 | 72 | |
| 20260503201220 | 63 | 0 | 2.6 | 0.0 | 0.00 | 0.00 | 0.00 | 73 | |
| 20260503200150 | 63 | 0 | 5.2 | 0.0 | 0.00 | 0.00 | 0.00 | 73 | |
| 20260503195150 | 63 | 0 | 6.1 | 0.0 | 0.00 | 0.00 | 0.00 | 73 | |
| 20260503194120 | 62 | 0 | 3.5 | 0.0 | 0.00 | 0.00 | 0.00 | 73 | |
| 20260503193120 | 60 | 0 | 4.3 | 0.0 | 0.00 | 0.00 | 0.00 | 78 | |
| 20260503192050 | 60 | 0 | 3.5 | 0.0 | 0.00 | 0.00 | 0.00 | 77 | |
| 20260503191050 | 61 | 0 | 4.3 | 0.0 | 0.00 | 0.00 | 0.00 | 76 | |
| 20260503190020 | 61 | 0 | 7.8 | 0.0 | 0.00 | 0.00 | 0.00 | 75 | |
| 20260503184950 | 61 | 0 | 2.6 | 0.0 | 0.00 | 0.00 | 0.00 | 78 | |
| 20260503183920 | 61 | 0 | 4.3 | 0.0 | 0.00 | 0.00 | 0.00 | 77 | |
| 20260503182850 | 59 | 0 | 1.7 | 0.0 | 0.00 | 0.00 | 0.00 | 81 | |
| 20260503181850 | 59 | 0 | 2.6 | 0.0 | 0.00 | 0.00 | 0.00 | 81 | |
| 20260503180820 | 59 | 0 | 1.7 | 0.0 | 0.00 | 0.00 | 0.00 | 82 | |
| 20260503175750 | 58 | 0 | 6.1 | 0.0 | 0.00 | 0.00 | 0.00 | 86 | |
| 20260503174720 | 57 | 0 | 2.6 | 0.0 | 0.00 | 0.00 | 0.00 | 91 | |
| 20260503173650 | 55 | 0 | 0.9 | 0.0 | 0.00 | 0.00 | 0.00 | 93 | |
| 20260503172620 | 55 | 0 | 2.6 | 0.0 | 0.00 | 0.00 | 0.00 | 91 | |
| 20260503171550 | 56 | 0 | 0.9 | 0.0 | 0.00 | 0.00 | 0.00 | 83 | |
| 20260503170520 | 57 | 0 | 3.5 | 0.0 | 0.00 | 0.00 | 0.00 | 82 | |
| 20260503130620 | 50 | 0 | 0.9 | 0.0 | 0.00 | 0.00 | 0.00 | 98 | |
| 20260503081350 | 54 | 0 | 0.0 | 0.0 | 0.00 | 0.00 | 0.00 | 97 | |
| 20260503080712 | 54 | 0 | 0.0 | 0.0 | 0.00 | 0.00 | 0.00 | 97 | |
| 20260503080350 | 54 | 0 | 0.0 | 0.0 | 0.00 | 0.00 | 0.00 | 97 | |
| 20260503072250 | 55 | 0 | 0.0 | 0.0 | 0.00 | 0.00 | 0.00 | 94 | |
| 20260503071250 | 55 | 0 | 0.0 | 0.0 | 0.00 | 0.00 | 0.00 | 94 | |
| 20260503070220 | 55 | 0 | 0.0 | 0.0 | 0.00 | 0.00 | 0.00 | 93 | |
| 20260503054850 | 58 | 0 | 0.0 | 0.0 | 0.00 | 0.00 | 0.00 | 88 | |
| 20260503053850 | 58 | 0 | 0.0 | 0.0 | 0.00 | 0.00 | 0.00 | 87 | |
| 20260503052820 | 59 | 0 | 0.0 | 0.0 | 0.00 | 0.00 | 0.00 | 87 | |
| 20260503051750 | 59 | 0 | 0.0 | 0.0 | 0.00 | 0.00 | 0.00 | 87 | |
| 20260503050720 | 60 | 0 | 0.0 | 0.0 | 0.00 | 0.00 | 0.00 | 86 | |
| 20260503045650 | 60 | 0 | 0.0 | 0.0 | 0.00 | 0.00 | 0.00 | 85 | |
| 20260503044620 | 60 | 0 | 0.0 | 0.0 | 0.00 | 0.00 | 0.00 | 84 | |
| 20260503043550 | 61 | 0 | 0.0 | 0.0 | 0.00 | 0.00 | 0.00 | 82 | |
| 20260503042520 | 61 | 0 | 0.0 | 0.0 | 0.00 | 0.00 | 0.00 | 81 | |
| 20260503041450 | 62 | 0 | 0.0 | 0.0 | 0.00 | 0.00 | 0.00 | 81 | |
| 20260503040606 | 62 | 0 | 0.0 | 0.0 | 0.00 | 0.00 | 0.00 | 79 | |
| 20260503040420 | 62 | 0 | 0.0 | 0.0 | 0.00 | 0.00 | 0.00 | 79 | |
| 20260503035350 | 63 | 0 | 0.0 | 0.0 | 0.00 | 0.00 | 0.00 | 78 | |
| 20260503034320 | 64 | 0 | 0.0 | 0.0 | 0.00 | 0.00 | 0.00 | 77 | |
| 20260503033250 | 64 | 0 | 0.0 | 0.0 | 0.00 | 0.00 | 0.00 | 76 | |
| 20260503032220 | 65 | 0 | 0.0 | 0.0 | 0.00 | 0.00 | 0.00 | 74 | |
| 20260503031150 | 66 | 0 | 0.0 | 0.0 | 0.00 | 0.00 | 0.00 | 73 | |
| 20260503030120 | 67 | 0 | 0.0 | 0.0 | 0.00 | 0.00 | 0.00 | 74 | |
| 20260503025050 | 67 | 0 | 1.7 | 0.0 | 0.00 | 0.00 | 0.00 | 71 | |
| 20260503024020 | 68 | 0 | 0.9 | 0.0 | 0.00 | 0.00 | 0.00 | 68 | |
| 20260503023125 | 69 | 0 | 0.9 | 0.0 | 0.00 | 0.00 | 0.00 | 67 | |
| 20260503023020 | 69 | 0 | 0.9 | 0.0 | 0.00 | 0.00 | 0.00 | 67 | |
| 20260503021950 | 70 | 0 | 1.7 | 0.0 | 0.00 | 0.00 | 0.00 | 65 | |
| 20260503020920 | 70 | 0 | 0.0 | 0.0 | 0.00 | 0.00 | 0.00 | 64 | |
| 20260503015850 | 71 | 0 | 0.9 | 0.0 | 0.00 | 0.00 | 0.00 | 63 | |
| 20260503014850 | 72 | 0 | 0.9 | 0.0 | 0.00 | 0.00 | 0.00 | 62 | |
| 20260503013820 | 72 | 0 | 0.0 | 0.0 | 0.00 | 0.00 | 0.00 | 61 | |
| 20260503013230 | 72 | 0 | 0.9 | 0.0 | 0.00 | 0.00 | 0.00 | 60 | |
| 20260503012750 | 72 | 0 | 0.9 | 0.0 | 0.00 | 0.00 | 0.00 | 60 | |
| 20260503011720 | 73 | 0 | 0.0 | 0.0 | 0.00 | 0.00 | 0.00 | 59 | |
| 20260503010650 | 73 | 0 | 0.9 | 0.0 | 0.00 | 0.00 | 0.00 | 59 | |
| 20260503005620 | 73 | 0 | 0.9 | 0.0 | 0.00 | 0.00 | 0.00 | 58 | |
| 20260503004550 | 74 | 0 | 0.9 | 0.0 | 0.00 | 0.00 | 0.00 | 57 | |
| 20260503003812 | 74 | 0 | 3.5 | 0.0 | 0.00 | 0.00 | 0.00 | 56 | |
| 20260503003520 | 74 | 0 | 3.5 | 0.0 | 0.00 | 0.00 | 0.00 | 56 | |
| 20260503002553 | 75 | 0 | 0.9 | 0.0 | 0.00 | 0.00 | 0.00 | 57 | |
| 20260503002450 | 75 | 0 | 0.9 | 0.0 | 0.00 | 0.00 | 0.00 | 57 | |
| 20260503001420 | 74 | 0 | 2.6 | 0.0 | 0.00 | 0.00 | 0.00 | 56 | |
| 20260503000350 | 76 | 0 | 0.9 | 0.0 | 0.00 | 0.00 | 0.00 | 54 | |
| 20260502235320 | 77 | 0 | 1.7 | 0.0 | 0.00 | 0.00 | 0.00 | 54 | |
| 20260502234320 | 77 | 0 | 1.7 | 0.0 | 0.00 | 0.00 | 0.00 | 53 | |
| 20260502233250 | 78 | 0 | 1.7 | 0.0 | 0.00 | 0.00 | 0.00 | 51 |